TimeEST,TemperatureF,Dew PointF,Humidity,Sea Level PressureIn,VisibilityMPH,Wind Direction,Wind SpeedMPH,Gust SpeedMPH,PrecipitationIn,Events,Conditions,WindDirDegrees,DateUTC
12:15 AM,60.8,42.8,52,29.92,10.0,SSW,9.2,18.4,N/A,,Overcast,200,2012-11-12 05:15:00
12:55 AM,60.8,42.8,52,29.93,10.0,SW,6.9,-,N/A,,Overcast,220,2012-11-12 05:55:00
1:15 AM,55.4,50.0,82,29.94,7.0,WSW,15.0,25.3,N/A,Rain,Rain,250,2012-11-12 06:15:00
1:35 AM,51.8,50.0,94,29.95,4.0,West,16.1,25.3,N/A,Rain,Heavy Rain,280,2012-11-12 06:35:00
1:55 AM,50.0,50.0,100,29.95,4.0,West,6.9,-,0.01,,Drizzle,260,2012-11-12 06:55:00
2:15 AM,50.0,50.0,100,29.96,4.0,WSW,5.8,-,0.02,Rain,Rain,250,2012-11-12 07:15:00
2:35 AM,50.0,50.0,100,29.95,7.0,Calm,Calm,-,0.05,Rain,Rain,0,2012-11-12 07:35:00
3:15 AM,50.0,50.0,100,29.95,7.0,SSW,3.5,-,0.01,Rain,Rain,210,2012-11-12 08:15:00
3:35 AM,50.0,50.0,100,29.95,7.0,SW,3.5,-,0.05,Rain,Rain,220,2012-11-12 08:35:00
4:15 AM,50.0,50.0,100,29.95,10.0,SW,3.5,-,0.02,Rain,Rain,220,2012-11-12 09:15:00
4:35 AM,50.0,50.0,100,29.95,7.0,SW,6.9,-,0.05,Rain,Rain,230,2012-11-12 09:35:00
4:55 AM,44.6,42.8,93,29.98,7.0,WNW,13.8,-,0.11,Rain,Rain,290,2012-11-12 09:55:00
5:15 AM,42.8,41.0,93,29.97,10.0,WNW,12.7,-,0.01,Rain,Light Rain,290,2012-11-12 10:15:00
5:35 AM,42.8,41.0,93,29.98,10.0,WNW,12.7,-,0.02,Rain,Rain,290,2012-11-12 10:35:00
6:15 AM,41.0,39.2,93,29.99,7.0,West,12.7,-,0.01,Rain,Light Rain,280,2012-11-12 11:15:00
6:35 AM,39.2,37.4,93,30.00,10.0,West,12.7,-,0.02,Rain,Light Rain,270,2012-11-12 11:35:00
7:15 AM,37.4,35.6,93,30.00,10.0,West,12.7,-,N/A,Rain,Rain,270,2012-11-12 12:15:00
7:35 AM,37.4,35.6,93,30.03,10.0,West,16.1,20.7,N/A,Rain,Light Rain,270,2012-11-12 12:35:00
7:55 AM,35.6,35.6,100,30.03,7.0,West,13.8,-,0.01,Rain,Light Rain,270,2012-11-12 12:55:00
8:15 AM,35.6,33.8,93,30.04,7.0,West,15.0,-,N/A,Rain,Light Rain,280,2012-11-12 13:15:00
8:35 AM,33.8,32.0,93,30.07,7.0,West,19.6,24.2,0.01,Rain,Light Rain,280,2012-11-12 13:35:00
8:55 AM,33.8,32.0,93,30.07,2.5,West,12.7,-,0.01,Snow,Light Snow,280,2012-11-12 13:55:00
9:15 AM,32.0,32.0,100,30.08,2.0,West,9.2,12.7,0.01,Snow,Light Snow,280,2012-11-12 14:15:00
9:35 AM,32.0,32.0,100,30.08,2.0,West,12.7,-,0.01,Snow,Light Snow,270,2012-11-12 14:35:00
9:55 AM,32.0,30.2,93,30.10,10.0,West,18.4,24.2,0.01,Snow,Light Snow,270,2012-11-12 14:55:00
10:15 AM,32.0,30.2,93,30.12,10.0,West,16.1,21.9,N/A,,Overcast,260,2012-11-12 15:15:00
10:35 AM,32.0,30.2,93,30.12,10.0,West,17.3,23.0,N/A,,Overcast,270,2012-11-12 15:35:00
10:55 AM,32.0,28.4,87,30.12,10.0,West,13.8,19.6,N/A,,Overcast,270,2012-11-12 15:55:00
11:15 AM,32.0,26.6,80,30.12,10.0,West,18.4,-,N/A,,Mostly Cloudy,260,2012-11-12 16:15:00
11:35 AM,32.0,28.4,87,30.12,10.0,West,19.6,23.0,N/A,,Mostly Cloudy,270,2012-11-12 16:35:00
12:15 PM,33.8,28.4,81,30.13,10.0,West,15.0,-,N/A,,Mostly Cloudy,260,2012-11-12 17:15:00
12:35 PM,33.8,28.4,81,30.12,10.0,West,12.7,20.7,N/A,,Mostly Cloudy,260,2012-11-12 17:35:00
12:55 PM,35.6,28.4,75,30.12,10.0,WSW,13.8,21.9,N/A,,Mostly Cloudy,250,2012-11-12 17:55:00
1:15 PM,35.6,28.4,75,30.12,10.0,West,16.1,24.2,N/A,,Mostly Cloudy,270,2012-11-12 18:15:00
1:35 PM,35.6,28.4,75,30.12,10.0,WSW,17.3,24.2,N/A,,Scattered Clouds,250,2012-11-12 18:35:00
1:55 PM,35.6,26.6,70,30.13,10.0,West,17.3,-,N/A,,Scattered Clouds,260,2012-11-12 18:55:00
2:15 PM,37.4,26.6,65,30.13,10.0,West,17.3,26.5,N/A,,Scattered Clouds,260,2012-11-12 19:15:00
2:35 PM,35.6,26.6,70,30.14,10.0,West,16.1,26.5,N/A,,Scattered Clouds,270,2012-11-12 19:35:00
2:55 PM,37.4,24.8,60,30.14,10.0,West,15.0,19.6,N/A,,Scattered Clouds,270,2012-11-12 19:55:00
3:15 PM,35.6,23.0,60,30.14,10.0,West,17.3,25.3,N/A,,Scattered Clouds,260,2012-11-12 20:15:00
3:35 PM,35.6,23.0,60,30.15,10.0,WSW,17.3,23.0,N/A,,Clear,250,2012-11-12 20:35:00
3:55 PM,35.6,23.0,60,30.16,10.0,West,16.1,28.8,N/A,,Clear,260,2012-11-12 20:55:00
4:15 PM,35.6,23.0,60,30.18,10.0,WSW,18.4,27.6,N/A,,Scattered Clouds,250,2012-11-12 21:15:00
4:55 PM,33.8,21.2,60,30.19,10.0,West,18.4,27.6,N/A,,Clear,260,2012-11-12 21:55:00
5:15 PM,32.0,23.0,69,30.19,10.0,WSW,13.8,18.4,N/A,,Clear,250,2012-11-12 22:15:00
5:35 PM,32.0,21.2,64,30.20,10.0,WSW,16.1,23.0,N/A,,Clear,250,2012-11-12 22:35:00
5:55 PM,32.0,23.0,69,30.22,10.0,West,12.7,18.4,N/A,,Clear,260,2012-11-12 22:55:00
6:15 PM,32.0,23.0,69,30.23,10.0,WSW,10.4,-,N/A,,Clear,250,2012-11-12 23:15:00
6:35 PM,32.0,23.0,69,30.24,10.0,West,10.4,-,N/A,,Mostly Cloudy,260,2012-11-12 23:35:00
6:55 PM,32.0,23.0,69,30.25,10.0,West,12.7,17.3,N/A,,Overcast,260,2012-11-12 23:55:00
7:15 PM,32.0,23.0,69,30.25,10.0,West,11.5,20.7,N/A,,Overcast,260,2012-11-13 00:15:00
7:35 PM,32.0,23.0,69,30.25,10.0,West,11.5,17.3,N/A,,Overcast,260,2012-11-13 00:35:00
7:55 PM,32.0,23.0,69,30.26,10.0,West,15.0,20.7,N/A,,Overcast,260,2012-11-13 00:55:00
8:15 PM,32.0,23.0,69,30.27,10.0,WSW,11.5,19.6,N/A,,Overcast,250,2012-11-13 01:15:00
8:35 PM,32.0,23.0,69,30.27,10.0,West,11.5,17.3,N/A,,Overcast,260,2012-11-13 01:35:00
8:55 PM,32.0,23.0,69,30.28,10.0,West,12.7,23.0,N/A,,Overcast,260,2012-11-13 01:55:00
9:15 PM,32.0,23.0,69,30.28,10.0,WSW,11.5,-,N/A,,Overcast,250,2012-11-13 02:15:00
9:35 PM,33.8,23.0,65,30.29,10.0,WSW,13.8,20.7,N/A,,Overcast,250,2012-11-13 02:35:00
9:55 PM,33.8,23.0,65,30.30,10.0,WSW,10.4,21.9,N/A,,Overcast,240,2012-11-13 02:55:00
10:15 PM,33.8,23.0,65,30.31,10.0,WSW,12.7,16.1,N/A,,Overcast,250,2012-11-13 03:15:00
10:35 PM,33.8,23.0,65,30.31,10.0,West,12.7,17.3,N/A,,Overcast,260,2012-11-13 03:35:00
10:55 PM,33.8,23.0,65,30.32,10.0,West,10.4,18.4,N/A,,Overcast,260,2012-11-13 03:55:00
11:15 PM,33.8,23.0,65,30.32,10.0,West,12.7,18.4,N/A,,Overcast,270,2012-11-13 04:15:00
11:35 PM,33.8,23.0,65,30.32,10.0,West,11.5,20.7,N/A,,Overcast,270,2012-11-13 04:35:00
11:55 PM,33.8,23.0,65,30.33,10.0,West,15.0,19.6,N/A,,Overcast,270,2012-11-13 04:55:00